contact:dominique.lefevre@mio.osupytheas.fr, maurice.libes@osupytheas.fr, didier.mallarino@osupytheas.fr
Project:EMSO http://www.emso-fr.org/EMSO-France
Depth: 2436.0 m
Title:EMSO Ligure Ouest : Data MII capteur AQUADOPP
Date,Latitude,Longitude,X_East,Y_North,Z_Up,Amplitude_X,Amplitude_Y,Amplitude_Z,Batterie,SoundSpeed,Heading,Pitch,Roll,Pressure,TIS,Speed,Direction
, degrees North, degrees East, m.s-1, m.s-1,m.s-1, 1, 1, 1, Volt, m.s-1, degree, degree, degree, dbar, degree_C, m.s-1, degree
2023-11-17T00:04:03,42.805,6.029,0.002,-0.006,-0.041,103.0,103.0,102.0,13.4,1505.2,335.9,-0.8,1.9,2471.537,13.29,0.006,161.6
2023-11-17T00:07:03,42.805,6.029,0.013,-0.01,-0.031,103.0,103.0,105.0,13.4,1505.2,341.5,-0.8,1.8,2471.548,13.29,0.016,127.6
2023-11-17T00:10:03,42.805,6.029,0.008,0.004,-0.012,105.0,104.0,102.0,13.4,1505.2,335.9,-0.8,1.8,2471.524,13.29,0.008,63.4
2023-11-17T00:13:03,42.805,6.029,0.012,0.0,-0.025,103.0,104.0,103.0,13.3,1505.2,352.4,-0.8,1.8,2471.538,13.29,0.012,90.0
2023-11-17T00:16:03,42.805,6.029,0.007,0.003,-0.03,103.0,104.0,103.0,13.4,1505.2,352.3,-0.8,1.8,2471.513,13.3,0.007,66.8
2023-11-17T00:19:03,42.805,6.029,0.0,0.023,-0.002,105.0,104.0,102.0,13.4,1505.2,345.5,-0.8,1.8,2471.494,13.3,0.023,0.0
2023-11-17T00:22:03,42.805,6.029,-0.001,0.017,-0.018,105.0,105.0,102.0,13.3,1505.2,341.2,-0.7,1.8,2471.52,13.3,0.017,356.6
2023-11-17T00:25:03,42.805,6.029,0.014,-0.005,-0.019,105.0,103.0,102.0,13.3,1505.2,336.2,-0.8,1.8,2471.483,13.3,0.014,109.6
2023-11-17T00:28:03,42.805,6.029,0.011,0.017,-0.019,104.0,103.0,104.0,13.4,1505.2,340.7,-0.8,1.8,2471.514,13.3,0.02,32.9
2023-11-17T00:31:03,42.805,6.029,0.008,0.014,-0.011,104.0,105.0,102.0,13.4,1505.2,356.5,-0.7,1.8,2471.512,13.3,0.016,29.7
2023-11-17T00:34:03,42.805,6.029,-0.006,0.017,-0.041,104.0,104.0,103.0,13.4,1505.2,349.3,-0.8,1.8,2471.513,13.3,0.018,340.6
2023-11-17T00:37:03,42.805,6.029,0.027,0.001,-0.009,105.0,105.0,103.0,13.3,1505.2,352.4,-0.8,1.8,2471.517,13.3,0.027,87.9
2023-11-17T00:40:03,42.805,6.029,0.002,0.003,-0.007,105.0,104.0,103.0,13.3,1505.2,352.7,-0.8,1.8,2471.483,13.3,0.003,33.7
2023-11-17T00:43:03,42.805,6.029,0.004,0.008,-0.042,104.0,103.0,102.0,13.3,1505.2,0.8,-0.7,1.8,2471.476,13.3,0.008,26.6
2023-11-17T00:46:03,42.805,6.029,0.011,0.017,-0.024,103.0,105.0,103.0,13.3,1505.2,341.8,-0.8,1.8,2471.484,13.3,0.02,32.9
2023-11-17T00:49:03,42.805,6.029,0.007,0.016,-0.041,105.0,105.0,103.0,13.4,1505.2,352.5,-0.8,1.8,2471.488,13.3,0.017,23.6
2023-11-17T00:52:03,42.805,6.029,0.026,0.025,0.011,105.0,103.0,103.0,13.4,1505.2,352.7,-0.8,1.8,2471.448,13.3,0.036,46.1
2023-11-17T00:55:03,42.805,6.029,0.01,0.007,-0.012,104.0,104.0,103.0,13.3,1505.2,0.0,-0.7,1.8,2471.494,13.3,0.012,55.0
2023-11-17T00:58:03,42.805,6.029,0.011,0.022,0.006,104.0,105.0,103.0,13.4,1505.2,340.6,-0.8,1.8,2471.479,13.3,0.024,26.6
2023-11-17T01:04:03,42.805,6.029,0.009,0.008,-0.011,105.0,105.0,103.0,13.3,1505.2,337.6,-0.7,1.8,2471.508,13.29,0.012,48.4
2023-11-17T01:07:03,42.805,6.029,0.016,0.004,-0.02,103.0,104.0,104.0,13.3,1505.2,356.1,-0.8,1.8,2471.512,13.3,0.016,76.0
2023-11-17T01:10:03,42.805,6.029,0.009,0.0,-0.03,105.0,106.0,104.0,13.4,1505.2,339.6,-0.8,1.8,2471.504,13.3,0.009,90.0
2023-11-17T01:13:03,42.805,6.029,-0.019,-0.008,-0.043,104.0,104.0,104.0,13.3,1505.2,339.6,-0.8,1.8,2471.484,13.29,0.02,247.2
2023-11-17T01:16:03,42.805,6.029,0.01,0.016,-0.012,104.0,104.0,101.0,13.4,1505.2,351.1,-0.7,1.8,2471.493,13.29,0.018,32.0
2023-11-17T01:19:03,42.805,6.029,0.005,0.011,-0.022,103.0,105.0,102.0,13.4,1505.2,344.2,-0.8,1.8,2471.503,13.29,0.012,24.4
2023-11-17T01:22:03,42.805,6.029,0.031,0.01,-0.005,105.0,104.0,102.0,13.4,1505.2,355.8,-0.8,1.8,2471.472,13.29,0.032,72.1
2023-11-17T01:25:03,42.805,6.029,0.017,0.008,-0.022,105.0,103.0,102.0,13.3,1505.2,352.1,-0.8,1.8,2471.455,13.29,0.018,64.8
2023-11-17T01:28:03,42.805,6.029,-0.009,0.014,-0.037,102.0,105.0,104.0,13.3,1505.2,336.4,-0.8,1.8,2471.445,13.29,0.016,327.3
2023-11-17T01:31:03,42.805,6.029,0.008,-0.002,-0.019,105.0,104.0,103.0,13.3,1505.2,351.5,-0.8,1.8,2471.463,13.29,0.008,104.0
2023-11-17T01:34:03,42.805,6.029,0.003,0.002,-0.027,107.0,104.0,103.0,13.4,1505.2,348.6,-0.8,1.8,2471.487,13.29,0.003,56.3
2023-11-17T01:37:03,42.805,6.029,0.01,-0.012,-0.019,102.0,104.0,102.0,13.4,1505.2,344.0,-0.7,1.8,2471.459,13.29,0.015,140.2
2023-11-17T01:40:03,42.805,6.029,-0.01,0.008,-0.024,104.0,102.0,102.0,13.4,1505.2,346.3,-0.8,1.8,2471.489,13.29,0.012,308.7
2023-11-17T01:43:03,42.805,6.029,0.005,-0.012,-0.038,105.0,104.0,102.0,13.4,1505.2,355.6,-0.8,1.9,2471.461,13.29,0.013,157.4
2023-11-17T01:46:03,42.805,6.029,0.023,-0.018,-0.026,104.0,103.0,103.0,13.3,1505.2,359.1,-0.7,1.8,2471.433,13.29,0.029,128.0
2023-11-17T01:49:03,42.805,6.029,0.009,-0.021,-0.017,104.0,103.0,103.0,13.4,1505.2,357.3,-0.8,1.8,2471.479,13.29,0.022,156.8
2023-11-17T01:52:03,42.805,6.029,0.032,0.0,0.008,102.0,103.0,103.0,13.4,1505.2,340.6,-0.8,1.8,2471.409,13.29,0.032,90.0
2023-11-17T01:55:03,42.805,6.029,0.019,0.001,-0.026,103.0,103.0,102.0,13.4,1505.2,356.1,-0.8,1.8,2471.453,13.29,0.019,87.0
2023-11-17T01:58:03,42.805,6.029,0.018,-0.005,-0.023,104.0,103.0,102.0,13.4,1505.2,352.5,-0.7,1.8,2471.45,13.29,0.018,105.5
2023-11-17T02:04:03,42.805,6.029,0.019,-0.038,-0.031,103.0,103.0,102.0,13.4,1505.2,354.2,-0.8,1.8,2471.496,13.29,0.042,153.4
2023-11-17T02:07:03,42.805,6.029,0.016,-0.031,-0.032,103.0,104.0,102.0,13.4,1505.2,352.3,-0.8,1.8,2471.469,13.29,0.034,152.7
2023-11-17T02:10:03,42.805,6.029,0.01,0.005,-0.026,103.0,103.0,102.0,13.4,1505.2,342.6,-0.8,1.8,2471.509,13.29,0.011,63.4
2023-11-17T02:13:03,42.805,6.029,0.028,0.002,0.0,102.0,102.0,103.0,13.4,1505.2,0.8,-0.7,1.8,2471.502,13.29,0.028,85.9
2023-11-17T02:16:03,42.805,6.029,0.006,0.026,-0.02,104.0,103.0,102.0,13.4,1505.2,333.8,-0.8,1.8,2471.483,13.29,0.026,13.0
2023-11-17T02:19:03,42.805,6.029,0.015,0.008,0.001,102.0,106.0,102.0,13.4,1505.2,351.3,-0.8,1.8,2471.472,13.29,0.017,61.9
2023-11-17T02:22:03,42.805,6.029,0.011,0.005,-0.054,103.0,106.0,101.0,13.4,1505.2,335.4,-0.8,1.8,2471.479,13.29,0.012,65.6
2023-11-17T02:25:03,42.805,6.029,0.018,0.0,-0.023,102.0,103.0,103.0,13.3,1505.2,342.8,-0.8,1.8,2471.424,13.29,0.018,90.0
2023-11-17T02:28:03,42.805,6.029,0.033,-0.003,-0.005,102.0,104.0,102.0,13.3,1505.2,339.3,-0.8,1.9,2471.46,13.29,0.033,95.2
2023-11-17T02:31:03,42.805,6.029,0.019,-0.019,-0.035,104.0,103.0,102.0,13.3,1505.2,353.0,-0.8,1.9,2471.425,13.29,0.026,135.0
2023-11-17T02:34:03,42.805,6.029,-0.004,0.012,-0.034,105.0,103.0,102.0,13.3,1505.2,355.6,-0.8,1.8,2471.464,13.29,0.012,341.6
2023-11-17T02:37:03,42.805,6.029,0.03,-0.018,-0.054,102.0,103.0,102.0,13.3,1505.2,349.2,-0.8,1.8,2471.457,13.29,0.034,121.0
2023-11-17T02:40:03,42.805,6.029,0.004,0.017,-0.032,104.0,103.0,102.0,13.3,1505.2,356.1,-0.8,1.8,2471.46,13.29,0.017,13.2
2023-11-17T02:43:03,42.805,6.029,0.012,-0.001,-0.039,103.0,105.0,102.0,13.4,1505.2,356.2,-0.8,1.8,2471.421,13.29,0.012,94.8
2023-11-17T02:46:03,42.805,6.029,0.008,-0.01,-0.016,104.0,102.0,103.0,13.3,1505.2,337.5,-0.7,1.8,2471.453,13.29,0.012,141.3
2023-11-17T02:49:03,42.805,6.029,0.032,-0.008,-0.024,103.0,105.0,103.0,13.3,1505.2,340.7,-0.8,1.8,2471.449,13.29,0.032,104.0
2023-11-17T02:52:03,42.805,6.029,0.029,0.0,-0.014,102.0,104.0,102.0,13.4,1505.2,359.1,-0.8,1.8,2471.419,13.29,0.028,90.0
2023-11-17T02:55:03,42.805,6.029,0.008,0.005,-0.011,103.0,104.0,102.0,13.3,1505.2,351.4,-0.8,1.8,2471.443,13.29,0.009,58.0
2023-11-17T02:58:03,42.805,6.029,0.009,0.0,-0.017,102.0,102.0,102.0,13.4,1505.2,355.2,-0.8,1.8,2471.428,13.29,0.009,90.0
2023-11-17T03:04:03,42.805,6.029,0.025,-0.007,-0.004,102.0,104.0,102.0,13.3,1505.2,342.3,-0.8,1.8,2471.464,13.29,0.025,105.6
2023-11-17T03:07:03,42.805,6.029,0.012,-0.023,-0.04,104.0,102.0,101.0,13.4,1505.2,0.8,-0.8,1.8,2471.46,13.29,0.025,152.4
2023-11-17T03:10:03,42.805,6.029,-0.014,0.013,-0.061,103.0,102.0,102.0,13.4,1505.2,333.8,-0.7,1.8,2471.473,13.29,0.019,312.9
2023-11-17T03:13:03,42.805,6.029,0.025,-0.007,-0.006,103.0,103.0,102.0,13.4,1505.2,345.7,-0.7,1.8,2471.475,13.29,0.025,105.6
2023-11-17T03:16:03,42.805,6.029,0.0,0.005,-0.049,104.0,102.0,102.0,13.4,1505.2,347.0,-0.8,1.8,2471.426,13.29,0.005,0.0
2023-11-17T03:19:03,42.805,6.029,0.008,-0.018,-0.057,106.0,103.0,102.0,13.4,1505.2,355.1,-0.8,1.9,2471.42,13.29,0.019,156.0
2023-11-17T03:22:03,42.805,6.029,0.017,-0.004,-0.041,103.0,104.0,101.0,13.4,1505.2,336.5,-0.8,1.8,2471.43,13.29,0.017,103.2
2023-11-17T03:25:03,42.805,6.029,0.014,-0.019,-0.033,102.0,102.0,103.0,13.4,1505.2,352.2,-0.8,1.8,2471.467,13.29,0.023,143.6
2023-11-17T03:28:03,42.805,6.029,0.008,-0.015,-0.047,104.0,103.0,102.0,13.3,1505.2,356.2,-0.8,1.8,2471.437,13.29,0.017,151.9
2023-11-17T03:31:03,42.805,6.029,0.014,0.005,-0.014,104.0,103.0,101.0,13.3,1505.2,336.0,-0.8,1.8,2471.432,13.29,0.014,70.4
2023-11-17T03:34:03,42.805,6.029,-0.005,-0.013,-0.034,102.0,103.0,102.0,13.4,1505.2,346.8,-0.8,1.8,2471.44,13.29,0.013,201.0
2023-11-17T03:37:03,42.805,6.029,-0.003,-0.01,-0.066,104.0,103.0,102.0,13.3,1505.2,354.2,-0.8,1.8,2471.481,13.29,0.01,196.7
2023-11-17T03:40:03,42.805,6.029,0.011,0.009,-0.031,104.0,103.0,102.0,13.3,1505.2,346.2,-0.8,1.8,2471.452,13.29,0.014,50.7
2023-11-17T03:43:03,42.805,6.029,0.02,-0.007,-0.034,103.0,102.0,102.0,13.4,1505.2,359.0,-0.7,1.8,2471.418,13.29,0.021,109.3
2023-11-17T03:46:03,42.805,6.029,0.009,-0.009,-0.032,102.0,105.0,103.0,13.4,1505.2,336.9,-0.8,1.8,2471.475,13.29,0.012,135.0
2023-11-17T03:49:03,42.805,6.029,0.001,-0.005,-0.037,103.0,103.0,102.0,13.4,1505.2,341.5,-0.8,1.8,2471.452,13.29,0.005,168.7
2023-11-17T03:52:03,42.805,6.029,0.025,0.005,-0.01,103.0,102.0,102.0,13.4,1505.2,337.5,-0.8,1.8,2471.46,13.29,0.025,78.7
2023-11-17T03:55:03,42.805,6.029,-0.002,-0.004,-0.051,103.0,103.0,102.0,13.4,1505.2,354.2,-0.7,1.8,2471.416,13.29,0.004,206.6
2023-11-17T03:58:03,42.805,6.029,0.013,-0.001,-0.055,103.0,103.0,103.0,13.4,1505.2,342.5,-0.8,1.8,2471.432,13.29,0.013,94.4
2023-11-17T04:04:03,42.805,6.029,0.025,-0.021,-0.051,103.0,103.0,102.0,13.4,1505.2,339.0,-0.8,1.8,2471.456,13.28,0.032,130.0
2023-11-17T04:07:03,42.805,6.029,0.019,-0.013,-0.036,102.0,103.0,103.0,13.4,1505.2,344.5,-0.8,1.8,2471.451,13.29,0.023,124.4
2023-11-17T04:10:03,42.805,6.029,0.042,-0.026,-0.012,104.0,102.0,102.0,13.3,1505.2,359.1,-0.8,1.8,2471.475,13.29,0.049,121.8
2023-11-17T04:13:03,42.805,6.029,0.026,-0.003,-0.022,103.0,103.0,102.0,13.4,1505.2,354.7,-0.7,1.8,2471.467,13.29,0.026,96.6
2023-11-17T04:16:03,42.805,6.029,0.017,-0.014,-0.044,103.0,104.0,102.0,13.4,1505.2,347.7,-0.7,1.8,2471.482,13.29,0.022,129.5
2023-11-17T04:19:03,42.805,6.029,0.015,0.002,-0.057,102.0,102.0,103.0,13.4,1505.2,345.5,-0.8,1.8,2471.468,13.29,0.015,82.4
2023-11-17T04:22:03,42.805,6.029,0.02,-0.016,-0.029,106.0,104.0,102.0,13.4,1505.2,337.3,-0.8,1.8,2471.443,13.29,0.025,128.7
2023-11-17T04:25:03,42.805,6.029,0.032,-0.024,-0.03,103.0,104.0,102.0,13.3,1505.2,342.7,-0.8,1.8,2471.448,13.29,0.04,126.9
2023-11-17T04:28:03,42.805,6.029,0.018,-0.013,-0.035,104.0,102.0,102.0,13.4,1505.2,340.5,-0.8,1.9,2471.465,13.29,0.022,125.8
2023-11-17T04:31:03,42.805,6.029,0.021,-0.003,-0.016,103.0,103.0,101.0,13.4,1505.2,348.5,-0.8,1.8,2471.419,13.29,0.021,98.1
2023-11-17T04:34:03,42.805,6.029,0.007,-0.01,-0.026,102.0,103.0,102.0,13.4,1505.2,353.2,-0.7,1.8,2471.402,13.29,0.012,145.0
2023-11-17T04:37:03,42.805,6.029,0.008,-0.015,-0.037,103.0,103.0,102.0,13.4,1505.2,352.9,-0.8,1.8,2471.413,13.29,0.017,151.9
2023-11-17T04:40:03,42.805,6.029,0.018,-0.026,-0.046,102.0,103.0,102.0,13.4,1505.2,349.0,-0.8,1.8,2471.453,13.29,0.031,145.3
2023-11-17T04:43:03,42.805,6.029,0.0,-0.011,-0.063,103.0,103.0,102.0,13.3,1505.2,337.3,-0.8,1.8,2471.462,13.29,0.011,180.0
2023-11-17T04:46:03,42.805,6.029,0.008,-0.005,-0.007,102.0,103.0,103.0,13.4,1505.2,345.0,-0.7,1.8,2471.451,13.29,0.009,122.0
2023-11-17T04:49:03,42.805,6.029,0.04,0.0,-0.024,104.0,103.0,102.0,13.4,1505.2,336.2,-0.7,1.8,2471.407,13.29,0.04,90.0
2023-11-17T04:52:03,42.805,6.029,0.013,-0.003,-0.029,102.0,104.0,101.0,13.3,1505.2,354.6,-0.8,1.8,2471.431,13.29,0.013,103.0
2023-11-17T04:55:03,42.805,6.029,0.0,0.004,-0.03,103.0,103.0,103.0,13.4,1505.2,358.1,-0.8,1.8,2471.415,13.29,0.004,0.0
2023-11-17T04:58:03,42.805,6.029,0.017,-0.036,-0.042,102.0,104.0,102.0,13.4,1505.2,349.3,-0.8,1.8,2471.452,13.29,0.039,154.7
2023-11-17T05:04:03,42.805,6.029,-0.004,-0.019,-0.04,104.0,103.0,102.0,13.4,1505.2,353.3,-0.8,1.8,2471.512,13.28,0.019,191.9
2023-11-17T05:07:03,42.805,6.029,0.017,-0.014,-0.04,105.0,103.0,101.0,13.4,1505.2,348.3,-0.8,1.8,2471.488,13.29,0.022,129.5
2023-11-17T05:10:03,42.805,6.029,0.016,-0.001,-0.038,103.0,103.0,102.0,13.4,1505.2,346.3,-0.8,1.8,2471.466,13.29,0.016,93.6
2023-11-17T05:13:03,42.805,6.029,0.034,-0.017,-0.016,102.0,104.0,102.0,13.4,1505.2,0.0,-0.7,1.8,2471.483,13.29,0.038,116.6
2023-11-17T05:16:03,42.805,6.029,0.036,-0.016,-0.021,103.0,103.0,102.0,13.3,1505.2,348.5,-0.8,1.8,2471.493,13.29,0.039,114.0
2023-11-17T05:19:03,42.805,6.029,-0.005,0.006,-0.044,103.0,103.0,102.0,13.3,1505.2,0.8,-0.8,1.8,2471.484,13.29,0.007,320.2
2023-11-17T05:22:03,42.805,6.029,0.01,-0.032,-0.055,102.0,103.0,102.0,13.4,1505.2,352.2,-0.8,1.8,2471.44,13.29,0.033,162.6
2023-11-17T05:25:03,42.805,6.029,-0.009,-0.018,-0.047,102.0,103.0,102.0,13.3,1505.2,342.7,-0.8,1.8,2471.447,13.29,0.02,206.6
2023-11-17T05:28:03,42.805,6.029,-0.003,0.009,-0.033,105.0,102.0,102.0,13.4,1505.2,345.5,-0.8,1.8,2471.493,13.29,0.009,341.6
2023-11-17T05:31:03,42.805,6.029,0.011,-0.017,-0.039,103.0,105.0,102.0,13.3,1505.2,346.5,-0.8,1.8,2471.462,13.29,0.02,147.1
2023-11-17T05:34:03,42.805,6.029,-0.012,-0.015,-0.034,103.0,104.0,104.0,13.3,1505.2,355.3,-0.8,1.8,2471.476,13.29,0.019,218.7
2023-11-17T05:37:03,42.805,6.029,-0.009,-0.029,-0.068,105.0,103.0,102.0,13.4,1505.2,349.9,-0.8,1.8,2471.452,13.29,0.03,197.2
2023-11-17T05:40:03,42.805,6.029,-0.011,-0.001,-0.018,105.0,103.0,103.0,13.3,1505.2,344.1,-0.8,1.8,2471.473,13.29,0.011,264.8
2023-11-17T05:43:03,42.805,6.029,-0.007,-0.004,-0.053,104.0,104.0,103.0,13.4,1505.2,348.5,-0.7,1.8,2471.462,13.29,0.008,240.3
2023-11-17T05:46:03,42.805,6.029,-0.001,-0.022,-0.071,104.0,104.0,102.0,13.4,1505.2,0.0,-0.8,1.8,2471.482,13.29,0.022,182.6
2023-11-17T05:49:03,42.805,6.029,0.012,-0.014,-0.03,104.0,104.0,102.0,13.4,1505.2,340.9,-0.8,1.8,2471.519,13.29,0.018,139.4
2023-11-17T05:52:03,42.805,6.029,-0.024,-0.003,-0.057,104.0,103.0,102.0,13.4,1505.2,342.1,-0.8,1.8,2471.485,13.29,0.024,262.9
2023-11-17T05:55:03,42.805,6.029,0.015,-0.039,-0.038,103.0,104.0,104.0,13.4,1505.2,335.9,-0.8,1.8,2471.471,13.29,0.041,159.0
2023-11-17T05:58:03,42.805,6.029,-0.003,-0.016,-0.016,103.0,103.0,104.0,13.4,1505.2,352.1,-0.8,1.8,2471.519,13.29,0.016,190.6
2023-11-17T06:04:03,42.805,6.029,0.002,-0.007,-0.011,103.0,104.0,102.0,13.4,1505.2,339.1,-0.7,1.8,2471.515,13.29,0.007,164.1
2023-11-17T06:07:03,42.805,6.029,0.006,-0.017,-0.018,103.0,101.0,103.0,13.4,1505.2,341.2,-0.7,1.8,2471.511,13.29,0.018,160.6
2023-11-17T06:10:03,42.805,6.029,0.011,-0.006,-0.021,101.0,103.0,102.0,13.3,1505.2,334.1,-0.8,1.8,2471.559,13.29,0.012,118.6
2023-11-17T06:13:03,42.805,6.029,0.002,0.009,0.008,104.0,103.0,102.0,13.4,1505.2,351.8,-0.7,1.8,2471.527,13.29,0.009,12.5
2023-11-17T06:16:03,42.805,6.029,0.013,0.009,-0.024,104.0,102.0,102.0,13.4,1505.2,348.2,-0.8,1.8,2471.522,13.29,0.015,55.3
2023-11-17T06:19:03,42.805,6.029,0.021,0.001,-0.032,104.0,102.0,103.0,13.4,1505.2,0.8,-0.7,1.8,2471.549,13.29,0.021,87.3
2023-11-17T06:22:03,42.805,6.029,0.001,-0.001,0.009,102.0,103.0,102.0,13.3,1505.2,350.6,-0.7,1.8,2471.515,13.29,0.001,135.0
2023-11-17T06:25:03,42.805,6.029,0.005,-0.006,-0.043,104.0,103.0,103.0,13.4,1505.2,346.6,-0.7,1.8,2471.511,13.29,0.007,140.2
2023-11-17T06:28:03,42.805,6.029,0.008,-0.01,-0.059,103.0,102.0,103.0,13.4,1505.2,334.5,-0.8,1.8,2471.514,13.29,0.012,141.3
2023-11-17T06:31:03,42.805,6.029,-0.012,-0.001,-0.021,104.0,104.0,103.0,13.4,1505.2,345.3,-0.7,1.8,2471.542,13.29,0.012,265.2
2023-11-17T06:34:03,42.805,6.029,0.0,-0.027,-0.045,103.0,102.0,103.0,13.3,1505.2,358.3,-0.8,1.8,2471.544,13.29,0.026,180.0
2023-11-17T06:37:03,42.805,6.029,0.005,0.003,-0.026,104.0,103.0,103.0,13.4,1505.2,353.9,-0.8,1.8,2471.533,13.29,0.005,59.0
2023-11-17T06:40:03,42.805,6.029,-0.012,-0.005,-0.045,104.0,105.0,104.0,13.3,1505.2,343.0,-0.8,1.8,2471.542,13.29,0.013,247.4
2023-11-17T06:43:03,42.805,6.029,0.0,0.014,-0.025,104.0,104.0,103.0,13.4,1505.2,346.5,-0.7,1.8,2471.559,13.29,0.014,0.0
2023-11-17T06:46:03,42.805,6.029,0.009,0.03,0.005,105.0,103.0,102.0,13.4,1505.2,348.5,-0.7,1.8,2471.568,13.29,0.031,16.7
2023-11-17T06:49:03,42.805,6.029,-0.025,0.019,-0.035,104.0,104.0,103.0,13.3,1505.2,344.5,-0.8,1.8,2471.604,13.29,0.031,307.2
2023-11-17T06:52:03,42.805,6.029,-0.006,0.014,0.0,104.0,105.0,102.0,13.4,1505.2,350.4,-0.8,1.8,2471.576,13.29,0.015,336.8
2023-11-17T06:55:03,42.805,6.029,-0.01,0.004,-0.029,104.0,103.0,103.0,13.4,1505.2,343.3,-0.7,1.8,2471.6,13.29,0.01,291.8
2023-11-17T06:58:03,42.805,6.029,-0.023,0.004,-0.043,103.0,103.0,103.0,13.4,1505.2,343.0,-0.8,1.8,2471.549,13.29,0.023,279.9
2023-11-17T07:04:03,42.805,6.029,0.002,0.015,-0.02,103.0,106.0,103.0,13.3,1505.2,355.9,-0.8,1.8,2471.645,13.29,0.015,7.6
2023-11-17T07:07:03,42.805,6.029,-0.002,-0.006,-0.041,103.0,103.0,103.0,13.4,1505.2,346.4,-0.8,1.8,2471.653,13.29,0.006,198.4
2023-11-17T07:10:03,42.805,6.029,-0.011,0.024,-0.017,104.0,104.0,103.0,13.4,1505.2,359.0,-0.8,1.8,2471.623,13.29,0.026,335.4
2023-11-17T07:13:03,42.805,6.029,-0.017,-0.004,-0.061,103.0,104.0,102.0,13.4,1505.2,333.4,-0.8,1.8,2471.606,13.29,0.017,256.8
2023-11-17T07:16:03,42.805,6.029,0.0,0.001,-0.029,104.0,104.0,102.0,13.4,1505.2,341.8,-0.8,1.8,2471.608,13.29,0.001,0.0
2023-11-17T07:19:03,42.805,6.029,-0.012,0.011,-0.041,104.0,103.0,103.0,13.4,1505.2,340.3,-0.8,1.8,2471.605,13.29,0.016,312.5
2023-11-17T07:22:03,42.805,6.029,-0.007,-0.015,-0.068,104.0,103.0,103.0,13.4,1505.2,343.2,-0.7,1.8,2471.625,13.29,0.016,205.0
2023-11-17T07:25:03,42.805,6.029,-0.006,0.015,-0.01,104.0,103.0,103.0,13.3,1505.2,335.4,-0.8,1.8,2471.622,13.29,0.016,338.2
2023-11-17T07:28:03,42.805,6.029,0.016,0.014,-0.003,103.0,103.0,103.0,13.4,1505.2,346.4,-0.7,1.8,2471.616,13.29,0.021,48.8
2023-11-17T07:31:03,42.805,6.029,-0.031,-0.001,-0.06,103.0,104.0,103.0,13.4,1505.2,339.2,-0.8,1.8,2471.644,13.29,0.031,268.2
2023-11-17T07:34:03,42.805,6.029,-0.021,0.0,-0.04,103.0,103.0,103.0,13.4,1505.2,1.7,-0.8,1.8,2471.618,13.29,0.021,270.0
2023-11-17T07:37:03,42.805,6.029,-0.016,0.018,-0.021,105.0,103.0,103.0,13.3,1505.2,355.6,-0.8,1.8,2471.636,13.29,0.024,318.4
2023-11-17T07:40:03,42.805,6.029,0.001,0.001,-0.038,104.0,103.0,102.0,13.3,1505.2,343.8,-0.8,1.8,2471.616,13.29,0.001,45.0
2023-11-17T07:43:03,42.805,6.029,-0.021,0.006,-0.037,103.0,105.0,103.0,13.4,1505.2,340.7,-0.7,1.8,2471.62,13.29,0.021,285.9
2023-11-17T07:46:03,42.805,6.029,-0.009,0.008,-0.007,104.0,105.0,104.0,13.4,1505.2,338.7,-0.8,1.8,2471.629,13.29,0.012,311.6
2023-11-17T07:49:03,42.805,6.029,0.0,0.012,-0.011,105.0,105.0,102.0,13.4,1505.2,344.3,-0.8,1.8,2471.632,13.29,0.012,0.0
2023-11-17T07:52:03,42.805,6.029,0.0,-0.001,-0.039,106.0,104.0,102.0,13.4,1505.2,351.6,-0.7,1.8,2471.603,13.29,0.001,180.0
2023-11-17T07:55:03,42.805,6.029,-0.025,0.02,-0.002,103.0,104.0,102.0,13.4,1505.2,354.6,-0.8,1.8,2471.602,13.29,0.032,308.7
2023-11-17T07:58:03,42.805,6.029,-0.017,0.017,-0.015,104.0,103.0,104.0,13.4,1505.2,334.1,-0.8,1.8,2471.625,13.29,0.024,315.0
2023-11-17T08:04:03,42.805,6.029,-0.017,0.014,-0.021,103.0,105.0,103.0,13.4,1505.2,336.2,-0.7,1.8,2471.748,13.29,0.022,309.5
2023-11-17T08:07:03,42.805,6.029,-0.005,0.028,-0.01,103.0,103.0,103.0,13.4,1505.2,352.1,-0.7,1.8,2471.697,13.29,0.028,349.9
2023-11-17T08:10:03,42.805,6.029,-0.022,0.025,-0.048,103.0,104.0,103.0,13.4,1505.2,345.2,-0.7,1.8,2471.663,13.29,0.033,318.7
2023-11-17T08:13:03,42.805,6.029,-0.013,0.018,-0.04,103.0,103.0,103.0,13.4,1505.2,345.7,-0.7,1.8,2471.647,13.29,0.022,324.2
2023-11-17T08:16:03,42.805,6.029,0.007,0.0,-0.001,104.0,104.0,103.0,13.4,1505.2,345.5,-0.8,1.8,2471.651,13.29,0.007,90.0
2023-11-17T08:19:03,42.805,6.029,-0.014,0.004,-0.044,106.0,104.0,104.0,13.4,1505.2,351.0,-0.7,1.8,2471.666,13.29,0.014,285.9
2023-11-17T08:22:03,42.805,6.029,-0.017,0.011,-0.04,105.0,102.0,103.0,13.4,1505.2,349.3,-0.8,1.8,2471.622,13.29,0.02,302.9
2023-11-17T08:25:03,42.805,6.029,-0.022,0.015,-0.037,104.0,104.0,102.0,13.3,1505.2,345.5,-0.7,1.8,2471.691,13.29,0.026,304.3
2023-11-17T08:28:03,42.805,6.029,-0.016,0.02,-0.044,104.0,103.0,102.0,13.4,1505.2,339.9,-0.7,1.8,2471.651,13.29,0.025,321.3
2023-11-17T08:31:03,42.805,6.029,-0.02,-0.005,-0.038,103.0,104.0,103.0,13.4,1505.2,336.2,-0.8,1.8,2471.667,13.29,0.02,256.0
2023-11-17T08:34:03,42.805,6.029,0.0,0.031,-0.007,104.0,104.0,102.0,13.4,1505.2,341.5,-0.7,1.8,2471.684,13.29,0.03,0.0
2023-11-17T08:37:03,42.805,6.029,-0.021,0.012,0.004,106.0,104.0,102.0,13.3,1505.2,336.2,-0.7,1.8,2471.687,13.29,0.024,299.7
2023-11-17T08:40:03,42.805,6.029,-0.004,0.001,-0.013,103.0,104.0,103.0,13.4,1505.2,338.7,-0.8,1.8,2471.666,13.29,0.004,284.0
2023-11-17T08:43:03,42.805,6.029,0.003,0.023,-0.054,104.0,103.0,102.0,13.3,1505.2,341.8,-0.8,1.8,2471.686,13.29,0.023,7.4
2023-11-17T08:46:03,42.805,6.029,0.0,0.014,-0.014,103.0,104.0,105.0,13.3,1505.2,334.5,-0.8,1.8,2471.674,13.29,0.014,0.0
2023-11-17T08:49:03,42.805,6.029,-0.001,0.009,-0.001,104.0,104.0,103.0,13.4,1505.2,343.0,-0.7,1.8,2471.641,13.29,0.009,353.7
2023-11-17T08:52:03,42.805,6.029,-0.011,0.01,-0.049,103.0,104.0,103.0,13.4,1505.2,334.5,-0.8,1.8,2471.676,13.29,0.014,312.3
2023-11-17T08:55:03,42.805,6.029,-0.014,0.016,-0.029,105.0,104.0,102.0,13.4,1505.2,346.3,-0.8,1.8,2471.65,13.29,0.021,318.8
2023-11-17T08:58:03,42.805,6.029,-0.009,0.01,-0.044,103.0,103.0,101.0,13.4,1505.2,353.3,-0.8,1.8,2471.67,13.29,0.013,318.0
2023-11-17T09:04:03,42.805,6.029,-0.02,0.007,-0.034,103.0,102.0,104.0,13.3,1505.2,0.0,-0.8,1.8,2471.695,13.29,0.021,289.3
2023-11-17T09:07:03,42.805,6.029,-0.022,0.002,-0.054,105.0,103.0,102.0,13.3,1505.2,333.8,-0.8,1.8,2471.742,13.29,0.022,275.2
2023-11-17T09:10:03,42.805,6.029,-0.013,-0.003,-0.027,105.0,103.0,103.0,13.4,1505.2,349.2,-0.7,1.8,2471.688,13.29,0.013,257.0
2023-11-17T09:13:03,42.805,6.029,0.015,0.026,-0.007,103.0,106.0,102.0,13.3,1505.2,0.8,-0.7,1.8,2471.722,13.29,0.03,30.0
2023-11-17T09:16:03,42.805,6.029,-0.018,0.006,-0.065,104.0,103.0,102.0,13.3,1505.2,352.2,-0.7,1.8,2471.719,13.29,0.018,288.4
2023-11-17T09:19:03,42.805,6.029,-0.012,0.027,-0.065,104.0,104.0,103.0,13.4,1505.2,0.0,-0.8,1.8,2471.676,13.29,0.029,336.0
2023-11-17T09:22:03,42.805,6.029,-0.015,0.021,-0.043,103.0,103.0,102.0,13.3,1505.2,354.5,-0.7,1.8,2471.634,13.29,0.025,324.5
2023-11-17T09:25:03,42.805,6.029,0.009,0.007,-0.037,104.0,102.0,103.0,13.4,1505.2,0.0,-0.7,1.8,2471.707,13.29,0.011,52.1
2023-11-17T09:28:03,42.805,6.029,-0.018,0.009,-0.032,103.0,104.0,102.0,13.4,1505.2,348.1,-0.7,1.8,2471.678,13.29,0.02,296.6
2023-11-17T09:31:03,42.805,6.029,-0.013,0.029,-0.012,104.0,103.0,102.0,13.4,1505.2,344.8,-0.8,1.8,2471.68,13.29,0.031,335.9
2023-11-17T09:34:03,42.805,6.029,-0.009,0.007,-0.02,104.0,103.0,103.0,13.4,1505.2,340.9,-0.8,1.8,2471.673,13.29,0.011,307.9
2023-11-17T09:37:03,42.805,6.029,0.003,0.0,-0.032,103.0,102.0,103.0,13.4,1505.2,335.6,-0.8,1.8,2471.67,13.29,0.003,90.0
2023-11-17T09:40:03,42.805,6.029,-0.019,0.032,-0.04,103.0,103.0,103.0,13.4,1505.2,358.0,-0.7,1.8,2471.658,13.29,0.037,329.3
2023-11-17T09:43:03,42.805,6.029,-0.008,0.028,-0.012,103.0,103.0,103.0,13.4,1505.2,346.6,-0.8,1.8,2471.68,13.29,0.029,344.1
2023-11-17T09:46:03,42.805,6.029,0.004,0.013,-0.008,103.0,104.0,102.0,13.4,1505.2,356.5,-0.7,1.7,2471.666,13.29,0.013,17.1
2023-11-17T09:49:03,42.805,6.029,0.0,-0.001,-0.03,104.0,104.0,103.0,13.4,1505.2,346.5,-0.7,1.8,2471.665,13.29,0.001,180.0
2023-11-17T09:52:03,42.805,6.029,-0.007,0.038,-0.016,103.0,103.0,102.0,13.4,1505.2,357.3,-0.8,1.8,2471.685,13.29,0.038,349.6
2023-11-17T09:55:03,42.805,6.029,-0.006,0.016,-0.032,103.0,103.0,103.0,13.4,1505.2,350.0,-0.8,1.8,2471.688,13.29,0.017,339.4
2023-11-17T09:58:03,42.805,6.029,-0.008,-0.015,-0.02,103.0,105.0,103.0,13.4,1505.2,343.8,-0.8,1.8,2471.68,13.29,0.017,208.1